Location: Caltech
(34.1382°N, 118.1253°W)
Time: 23:44:21
(UTC-07:00)

SL-8 R/B - Visible Passes

Search period start: 24 July 2014 00:00
Search period end: 03 August 2014 00:00
Orbit: 359 x 374 km, 98.1° (Epoch: 24 July)

Date Brightness Start Highest point End Pass type
(mag) Time Alt. Az. Time Alt. Az. Time Alt. Az.
24 Jul 3.2 04:10:25 10° N 04:12:43 42° NW 04:12:43 42° NW visible
25 Jul 5.8 03:11:17 10° ENE 03:11:42 11° ENE 03:11:42 11° ENE visible
25 Jul 4.5 04:41:50 10° NNW 04:43:38 16° WNW 04:43:38 16° WNW visible
26 Jul 4.4 03:40:42 10° NNE 03:42:34 30° NE 03:42:34 30° NE visible
27 Jul 3.3 04:11:08 10° N 04:13:22 42° NNW 04:13:22 42° NNW visible
28 Jul 5.9 03:12:00 10° ENE 03:12:12 11° ENE 03:12:12 11° ENE visible
28 Jul 4.4 04:42:19 10° NNW 04:44:07 17° WNW 04:44:07 17° WNW visible
29 Jul 4.6 03:41:09 10° NNE 03:42:54 28° NE 03:42:54 28° NE visible
30 Jul 3.4 04:11:23 10° N 04:13:33 42° NNW 04:13:33 42° NNW visible
31 Jul 4.4 04:42:20 10° NNW 04:44:08 18° WNW 04:44:08 18° WNW visible
01 Aug 4.8 03:41:09 10° NNE 03:42:46 25° NE 03:42:46 25° NE visible
02 Aug 3.5 04:11:10 10° N 04:13:15 41° NNW 04:13:15 41° NNW visible
